Warning: Javascript must be enabled to use all the features on this page!


Page Loading - Please Wait...

Click to hideNews Bulletins

Peak Streamflow for the Nation

USGS 02037500 JAMES RIVER NEAR RICHMOND, VA

Henrico County, Virginia
Hydrologic Unit Code 02080205
Latitude  37°33'47", Longitude  77°32'50" NAD27
Drainage area 6,753  square miles
Gage datum 98.82 feet above NGVD29
Output formats
Table
Graph
Tab-separated file
peakfq (watstore) format
Reselect output format
Water
Year
Date Gage
Height
(feet)
Stream-
flow
(cfs)
1935 1935-09-07 21.01 127,000
1936 1936-03-19 23.42 175,000
1937 1937-04-27 22.65 152,0001,8
1938 1937-10-21 18.20 92,500
1939 1939-08-20 14.37 57,900
1940 1940-08-18 21.80 151,000
1941 1941-04-06 11.93 39,100
1942 1942-05-24 15.74 68,600
1943 1942-10-17 19.80 119,000
1944 1944-09-20 21.80 150,000
1945 1945-09-20 14.82 61,100
1946 1946-01-09 12.20 41,300
1947 1947-03-17 11.65 37,000
1948 1948-04-02 16.45 75,000
1949 1948-12-05 20.90 136,000
1950 1950-09-12 14.60 59,500
1951 1950-12-10 14.85 61,100
1952 1951-12-22 14.53 58,700
1953 1953-03-27 15.95 71,100
1954 1954-03-03 14.54 58,700
1955 1955-08-20 18.36 98,700
1956 1956-03-17 9.32 22,600
1957 1957-04-08 15.00 62,700
1958 1958-04-02 13.35 50,100
1959 1959-06-04 12.05 39,800
1960 1960-04-07 15.70 68,600
1961 1961-04-14 12.63 44,200
1962 1961-10-23 17.98 94,000
1963 1963-03-15 16.42 81,600
1964 1964-01-27 11.22 34,300
1965 1965-02-09 15.32 69,600
1966 1966-02-15 13.75 55,200
1967 1967-03-09 15.37 70,600
1968 1967-12-12 11.24 34,300
1969 1969-08-21 24.95 222,000
1970 1970-01-02 14.92 65,600
1971 1971-06-01 17.02 88,500
1972 1972-06-23 28.62 313,000
1973 1972-10-07 21.76 162,000
1974 1973-12-29 15.94 76,100
1975 1975-03-21 20.08 133,000
1976 1976-01-02 14.08 57,900
1977 1976-10-11 15.63 72,800
1978 1978-01-28 19.36 122,000
1979 1979-02-27 20.38 138,000
1980 1980-04-16 14.74 63,600
1981 1981-05-30 9.85 25,700
1982 1982-06-15 15.65 73,400
1983 1983-04-12 15.66 73,500
1984 1984-02-16 17.27 91,700
1985 1985-08-19 14.94 66,000
1986 1985-11-07 24.77 218,000
1987 1987-04-18 21.91 163,000
1988 1987-11-30 10.72 31,100
1989 1989-05-07 17.70 96,900
1990 1990-05-30 14.01 57,100
1991 1990-10-24 15.17 68,300
1992 1992-04-24 19.24 119,000
1993 1993-03-06 18.87 114,000
1994 1994-03-30 17.48 94,300
1995 1995-01-18 16.42 81,800
1996 1996-09-08 21.23 152,000
1997 1996-12-03 15.72 74,500
1998 1998-01-29 16.77 87,000
1999 1999-01-25 9.46 24,900
2000 1999-10-01 15.43 73,200
2001 2001-03-31 11.82 40,700
2002 2002-04-24 9.31 24,300
2003 2003-02-25 18.73 113,000
2004 2003-11-21 14.57 62,400
2005 2004-10-01 15.50 72,000
2006 2006-06-29 15.81 75,500
2007 2006-10-08 15.42 71,100
2008 2008-04-30 11.23 36,600
2009 2009-05-08 10.66 32,700
2010 2010-01-27 18.10 104,000
2011 2011-04-18 15.07 67,400
2012 2011-12-09 15.51 68,600
2013 2013-05-10 15.00 66,700
2014 2014-05-17 15.36 70,500
2015 2015-03-07 12.71 47,300
2016 2016-02-25 13.40 52,600
2017 2017-05-27 14.27 59,700
2018 2018-02-12 15.40 70,900
2019 2019-02-25 16.22 80,300
2020 2020-04-14 14.60 62,700
2021 2020-11-14 18.33 108,000
?
  Peak Streamflow Qualification Codes.